[[{"header":{"parameterUnit":"m.s-1","parameterCategory":1,"la1":30.2991,"la2":30.254,"lo1":-89.0895,"lo2":-89.0444,"dy":0.0017,"dx":0.0017,"nx":28,"ny":28,"refTime":"2024-09-26T09:00:00:Z","depth":0,"parameterNumber":2,"parameterNumberName":"U-component_of_WINDS"},"data":[0,0,0,0,0,0,0,0,0,0,0,0,0,0,0,0,0,0,0,0,0,0,0,0,0,0,0,0,0,0,0,0,0,0,0,0,0,0,0,0,0,0,0,0,0,0,0,0,0,0,0,0,0,0,0,0,0,0,5.5491,5.5493,0,5.566,5.5662,5.5664,5.5621,5.5618,5.5614,5.5611,5.5785,5.5792,5.58,0,0,0,0,0,0,0,0,0,0,0,0,0,5.513,5.5137,5.5491,5.5493,5.5495,5.566,5.5662,5.5665,5.5622,5.5618,5.5613,5.561,5.5782,5.5791,5.5801,0,0,0,0,0,0,0,0,0,0,0,0,0,5.5292,5.5139,5.549,5.5493,5.5495,5.566,5.5663,5.5665,5.5622,5.5617,5.5612,5.5608,5.5779,5.5791,5.5802,5.5974,0,0,5.5838,5.5843,0,0,0,0,0,0,0,0,5.5283,5.5305,5.5491,5.5493,5.5496,5.5614,5.5599,5.5769,5.5624,5.5574,5.5611,5.5605,5.5732,5.5747,5.579,5.5982,5.599,5.5839,5.5846,5.5851,5.5854,0,0,0,0,0,0,0,5.5271,5.5297,5.5558,5.5493,5.5497,5.5486,5.5504,5.5631,5.5679,5.5578,5.5575,5.5596,5.5733,5.5779,5.5794,5.5992,5.5838,5.5849,5.5856,5.586,5.6334,5.6339,0,0,0,0,0,0,5.5258,5.5288,5.5552,5.5563,5.5375,5.5497,5.5516,5.5581,5.5678,5.5688,5.56,5.5593,5.5762,5.578,5.58,5.6007,5.585,5.5861,5.5868,5.6328,5.6335,5.6341,0,0,0,0,0,0,5.5251,5.5282,5.5546,5.5425,5.5458,5.5508,5.5582,5.5587,5.5634,5.5694,5.5703,5.5639,5.5759,5.5784,5.5931,5.6013,5.5867,5.5877,5.6322,5.633,5.6338,5.6424,0,0,0,0,0,0,5.524,5.528,5.5345,5.5427,5.5464,5.5674,5.5587,5.5594,5.5654,5.5647,5.5733,5.5742,5.5757,5.5914,5.5943,5.6026,5.5886,5.6315,5.6326,5.6336,5.6414,5.6434,5.6452,0,0,0,0,0,5.5228,5.5363,5.5349,5.5381,5.5548,5.5679,5.57,5.5714,5.5661,5.5727,5.5766,5.5739,5.6,5.5929,5.5961,5.605,5.631,5.6323,5.6335,5.6406,5.643,5.6451,0,0,0,0,0,0,5.5289,5.5373,5.5359,5.5524,5.5595,5.5671,5.5755,5.574,5.5827,5.5816,5.583,5.585,5.6,5.604,5.596,5.6221,5.6147,5.6166,5.619,5.6214,5.6232,5.6219,5.5896,0,0,0,0,0,5.5322,5.5421,5.549,5.5629,5.5665,5.5705,5.5762,5.5767,5.584,5.587,5.5919,5.5992,5.609,5.6154,5.6248,5.642,5.6438,5.6496,5.6515,5.653,5.6547,5.6641,5.6668,5.6383,5.6383,5.6382,0,0,5.5391,5.5449,5.5511,5.5643,5.5698,5.5801,5.573,5.5841,5.5918,5.5887,5.6029,5.6068,5.615,5.6311,5.6384,5.6348,5.663,5.6546,5.6558,5.6567,5.6657,5.6684,5.6708,5.6391,5.639,5.6388,0,0,5.5568,5.5622,5.5744,5.5801,5.5886,5.5911,5.5941,5.602,5.6045,5.6188,5.6167,5.6258,5.6427,5.6486,5.6538,5.674,5.6718,5.677,5.6867,5.6959,5.6981,5.7001,5.7073,5.7098,5.6786,5.6787,5.6787,0,5.5643,5.5797,5.5809,5.5923,5.5982,5.5959,5.6083,5.6137,5.6248,5.6289,5.6248,5.6459,5.6513,5.6687,5.6736,5.6779,5.6813,5.6759,5.6977,5.6997,5.7016,5.7084,5.7111,5.6792,5.6792,5.6791,5.679,0,5.5884,5.5991,5.608,5.6188,5.6256,5.6375,5.6405,5.6474,5.6473,5.6503,5.6649,5.6713,5.6818,5.686,5.6861,5.7035,5.701,5.6974,5.6899,5.7049,5.7113,5.7139,5.68,5.6798,5.6797,5.6795,0,0,5.6104,5.6218,5.625,5.6299,5.6391,5.6474,5.6592,5.6695,5.6754,5.6831,5.693,5.7074,5.704,5.71,5.7106,5.7187,5.7342,5.714,5.7142,5.7175,5.7538,5.7565,5.7595,5.7329,5.7334,5.7338,5.7531,0,5.6289,5.6496,5.6511,5.6698,5.6797,5.6777,5.688,5.6947,5.6979,5.7068,5.7102,5.7204,5.7152,5.7188,5.7267,5.7306,5.7415,5.7293,5.7421,5.7425,5.74,5.7629,5.7657,5.7836,5.7556,5.7561,5.7564,0,5.6533,5.6618,5.6814,5.6893,5.6935,5.7027,5.7123,5.7209,5.7285,5.7302,5.7369,5.7365,5.7486,5.7408,5.7575,5.7491,5.7545,5.7573,5.758,5.7591,5.7503,5.7646,5.7894,5.792,5.7604,5.76,5.7598,0,5.6672,5.6836,5.6975,5.7017,5.7113,5.7178,5.722,5.7292,5.7354,5.7438,5.7478,5.7576,5.763,5.7706,5.7728,5.7669,5.7895,5.7818,5.7912,5.7912,5.7959,5.7956,5.8218,5.7996,5.7995,5.7995,5.7994,0,5.6877,5.6998,5.7039,5.7124,5.7259,5.7276,5.7409,5.7448,5.7513,5.7605,5.7594,5.7682,5.7706,5.7798,5.7817,5.7952,5.7977,5.7994,5.7997,5.7994,5.7992,5.8029,5.8016,5.8002,5.8,5.7999,5.7998,0,5.7056,5.7088,5.7238,5.7316,5.7339,5.7435,5.7501,5.7584,5.7614,5.7731,5.776,5.7807,5.7915,5.7945,5.8074,5.8087,5.8246,5.8238,5.822,5.8219,5.8311,5.8302,5.8606,5.8646,5.8398,5.84,5.8402,0,5.7184,5.7276,5.7364,5.7426,5.7471,5.757,5.7633,5.7653,5.7719,5.7814,5.7885,5.7991,5.8077,5.825,5.8296,5.8395,5.8389,5.8489,5.8404,5.8398,5.839,5.8383,5.8392,5.8504,5.8507,5.8509,5.8511,0,5.7407,5.7419,5.751,5.7607,5.7683,5.776,5.7835,5.7886,5.7917,5.7991,5.8101,5.8168,5.83,5.8406,5.8506,5.855,5.8536,5.8538,5.8564,5.8562,5.8547,5.8555,5.8262,5.853,5.8528,5.8527,5.8526,5.8525,5.7564,5.7645,5.772,5.7822,5.788,5.795,5.8031,5.8072,5.8164,5.8273,5.8279,5.8399,5.8473,5.8607,5.8656,5.875,5.872,5.8759,5.8769,5.8778,5.8785,5.8533,5.8768,5.8768,5.8767,5.8767,5.8767,0,5.7786,5.7834,5.7927,5.8032,5.8112,5.8093,5.8174,5.8242,5.8347,5.8418,5.8503,5.863,5.8732,5.8787,5.8889,5.8953,5.895,5.8979,5.8974,5.8985,5.8806,5.8772,5.8981,5.8981,5.8981,5.8981,5.8981,5.8981,5.7911,5.8048,5.8069,5.8234,5.828,5.8397,5.8445,5.851,5.8566,5.8708,5.8793,5.8828,5.8893,5.9,5.9093,5.9106,5.9144,5.9177,5.9187,5.9019,5.8997,5.8976,5.8944,5.9186,5.9186,5.9358,5.9359,5.936]},{"header":{"parameterUnit":"m.s-1","parameterCategory":1,"la1":30.2991,"la2":30.254,"lo1":-89.0895,"lo2":-89.0444,"dy":0.0017,"dx":0.0017,"nx":28,"ny":28,"refTime":"2024-09-26T09:00:00:Z","depth":0,"parameterNumber":3,"parameterNumberName":"V-component_of_WINDS"},"data":[0,0,0,0,0,0,0,0,0,0,0,0,0,0,0,0,0,0,0,0,0,0,0,0,0,0,0,0,0,0,0,0,0,0,0,0,0,0,0,0,0,0,0,0,0,0,0,0,0,0,0,0,0,0,0,0,0,0,-3.6807,-3.6809,0,-3.7018,-3.7021,-3.7023,-3.7032,-3.7029,-3.7027,-3.7024,-3.7245,-3.7253,-3.7261,0,0,0,0,0,0,0,0,0,0,0,0,0,-3.6414,-3.6421,-3.6806,-3.6809,-3.6812,-3.7018,-3.7021,-3.7024,-3.7032,-3.7029,-3.7026,-3.7023,-3.7242,-3.7252,-3.7262,0,0,0,0,0,0,0,0,0,0,0,0,0,-3.6601,-3.6424,-3.6806,-3.6841,-3.6846,-3.7017,-3.7021,-3.7025,-3.7033,-3.7029,-3.7025,-3.7022,-3.7239,-3.7251,-3.7263,-3.7416,0,0,-3.7301,-3.7306,0,0,0,0,0,0,0,0,-3.6591,-3.6616,-3.6833,-3.6839,-3.6845,-3.6995,-3.6964,-3.7156,-3.7034,-3.6962,-3.7024,-3.702,-3.7165,-3.7183,-3.7231,-3.7426,-3.7435,-3.7302,-3.731,-3.7315,-3.7318,0,0,0,0,0,0,0,-3.6578,-3.6607,-3.689,-3.6836,-3.6843,-3.6847,-3.687,-3.7,-3.7082,-3.6968,-3.6969,-3.6994,-3.7168,-3.722,-3.7237,-3.7439,-3.7302,-3.7313,-3.732,-3.7325,-3.7771,-3.7775,0,0,0,0,0,0,-3.6557,-3.6596,-3.6884,-3.6897,-3.6706,-3.6857,-3.6882,-3.695,-3.7081,-3.7097,-3.6997,-3.6993,-3.72,-3.7222,-3.7245,-3.7433,-3.7315,-3.7326,-3.7334,-3.7767,-3.7772,-3.7777,0,0,0,0,0,0,-3.6549,-3.6583,-3.6875,-3.6747,-3.6784,-3.6868,-3.6945,-3.6957,-3.7009,-3.7103,-3.7118,-3.7034,-3.7198,-3.7227,-3.7373,-3.7441,-3.7332,-3.7343,-3.7761,-3.7768,-3.7774,-3.781,0,0,0,0,0,0,-3.6537,-3.658,-3.6637,-3.6748,-3.6791,-3.6999,-3.6949,-3.6964,-3.7029,-3.7027,-3.7142,-3.7158,-3.7197,-3.7355,-3.7386,-3.7456,-3.7353,-3.7756,-3.7764,-3.7772,-3.7803,-3.7817,-3.7828,0,0,0,0,0,-3.6523,-3.6639,-3.664,-3.6675,-3.6864,-3.7003,-3.7028,-3.707,-3.7035,-3.7094,-3.7155,-3.7154,-3.7428,-3.737,-3.7404,-3.7479,-3.7752,-3.7762,-3.7772,-3.7797,-3.7814,-3.7828,0,0,0,0,0,0,-3.6536,-3.6654,-3.6657,-3.6811,-3.6897,-3.7004,-3.708,-3.7086,-3.7184,-3.7178,-3.7228,-3.7254,-3.7399,-3.7454,-3.7387,-3.7634,-3.7586,-3.7603,-3.7593,-3.761,-3.7623,-3.7607,-3.7363,0,0,0,0,0,-3.6556,-3.6657,-3.6756,-3.6883,-3.6926,-3.6996,-3.7057,-3.7083,-3.7174,-3.721,-3.7282,-3.7371,-3.7478,-3.7547,-3.765,-3.7811,-3.7837,-3.7879,-3.7892,-3.7902,-3.7917,-3.8008,-3.8028,-3.781,-3.7809,-3.7809,0,0,-3.66,-3.6677,-3.6738,-3.6888,-3.6957,-3.7062,-3.7026,-3.7138,-3.7217,-3.7228,-3.737,-3.7426,-3.7529,-3.7683,-3.7755,-3.7733,-3.7983,-3.7915,-3.7922,-3.7932,-3.802,-3.8041,-3.8059,-3.7816,-3.7815,-3.7814,0,0,-3.6734,-3.6802,-3.6915,-3.6985,-3.709,-3.7136,-3.7163,-3.727,-3.7307,-3.745,-3.7461,-3.7556,-3.7738,-3.7812,-3.7873,-3.8036,-3.8039,-3.8068,-3.8135,-3.8223,-3.8241,-3.8256,-3.8316,-3.8336,-3.8082,-3.8083,-3.8083,0,-3.6775,-3.6933,-3.6974,-3.7086,-3.7153,-3.7166,-3.7283,-3.7349,-3.7483,-3.7529,-3.7502,-3.7732,-3.7802,-3.7975,-3.8014,-3.8063,-3.8098,-3.8056,-3.8234,-3.825,-3.8266,-3.8323,-3.8345,-3.8085,-3.8085,-3.8085,-3.8085,0,-3.6979,-3.7088,-3.7168,-3.7296,-3.7371,-3.7485,-3.7545,-3.7617,-3.7636,-3.7685,-3.7832,-3.7917,-3.8038,-3.8081,-3.81,-3.8257,-3.824,-3.8224,-3.8176,-3.8289,-3.8343,-3.8366,-3.809,-3.8089,-3.8088,-3.8087,0,0,-3.7127,-3.7276,-3.7305,-3.7363,-3.748,-3.7566,-3.7682,-3.7799,-3.786,-3.7952,-3.8052,-3.8206,-3.8191,-3.8261,-3.8289,-3.8366,-3.8492,-3.8341,-3.8344,-3.8367,-3.8671,-3.8684,-3.8708,-3.8494,-3.8499,-3.8502,-3.8663,0,-3.7274,-3.7478,-3.7519,-3.7697,-3.7799,-3.7814,-3.7915,-3.7998,-3.8048,-3.8143,-3.8198,-3.8307,-3.8279,-3.8321,-3.8398,-3.846,-3.8554,-3.8449,-3.8589,-3.8594,-3.8564,-3.8737,-3.875,-3.8898,-3.8685,-3.8688,-3.8691,0,-3.7474,-3.7569,-3.7757,-3.7861,-3.7906,-3.7995,-3.8107,-3.8197,-3.8293,-3.8324,-3.8402,-3.8422,-3.8545,-3.8491,-3.8662,-3.859,-3.865,-3.8689,-3.8696,-3.8712,-3.865,-3.8758,-3.8946,-3.8969,-3.8725,-3.8722,-3.872,0,-3.7564,-3.774,-3.7875,-3.7925,-3.8049,-3.8113,-3.8168,-3.826,-3.8328,-3.8426,-3.8471,-3.8583,-3.8644,-3.8731,-3.8782,-3.8737,-3.895,-3.8899,-3.898,-3.8979,-3.9025,-3.9022,-3.9226,-3.9062,-3.9061,-3.9061,-3.906,0,-3.7725,-3.784,-3.7918,-3.8001,-3.813,-3.8177,-3.8305,-3.8359,-3.8441,-3.8537,-3.8557,-3.8646,-3.8707,-3.8806,-3.8847,-3.8983,-3.9011,-3.904,-3.905,-3.9039,-3.9036,-3.908,-3.9072,-3.9067,-3.9065,-3.9064,-3.9063,0,-3.7848,-3.7905,-3.8053,-3.8159,-3.8188,-3.8279,-3.8371,-3.8453,-3.8502,-3.8624,-3.8655,-3.8733,-3.8851,-3.891,-3.9056,-3.9084,-3.9238,-3.9241,-3.9206,-3.921,-3.9288,-3.928,-3.9529,-3.9565,-3.9375,-3.9377,-3.9378,0,-3.7948,-3.8036,-3.8151,-3.8215,-3.8272,-3.8376,-3.8446,-3.8495,-3.8568,-3.8684,-3.8753,-3.8871,-3.8969,-3.9157,-3.9228,-3.9341,-3.9347,-3.9427,-3.9364,-3.9351,-3.935,-3.9345,-3.9355,-3.9438,-3.944,-3.9441,-3.9442,0,-3.8119,-3.8142,-3.8241,-3.835,-3.8432,-3.8521,-3.8609,-3.8661,-3.8726,-3.8806,-3.8926,-3.9001,-3.9151,-3.9269,-3.9387,-3.9446,-3.9456,-3.9461,-3.9486,-3.9477,-3.9453,-3.9469,-3.9237,-3.9456,-3.9454,-3.9453,-3.9453,-3.9452,-3.8235,-3.8314,-3.8407,-3.8517,-3.8588,-3.8669,-3.8752,-3.8812,-3.8912,-3.9037,-3.9061,-3.9188,-3.9284,-3.9443,-3.9506,-3.9608,-3.9591,-3.9627,-3.9636,-3.9645,-3.9649,-3.9436,-3.963,-3.9629,-3.9629,-3.9629,-3.9629,0,-3.8408,-3.8468,-3.8569,-3.869,-3.8777,-3.8777,-3.8874,-3.8947,-3.9059,-3.9146,-3.9241,-3.938,-3.9495,-3.9575,-3.9692,-3.9759,-3.9767,-3.9788,-3.9784,-3.9798,-3.9657,-3.9624,-3.978,-3.978,-3.978,-3.978,-3.978,-3.978,-3.8508,-3.8643,-3.8678,-3.8849,-3.891,-3.9034,-3.909,-3.9166,-3.9236,-3.9389,-3.9484,-3.9535,-3.9621,-3.9744,-3.985,-3.9871,-3.9914,-3.9936,-3.9957,-3.9824,-3.9808,-3.9793,-3.9762,-3.9945,-3.9945,-4.009,-4.0092,-4.0093]}]]